Hourly Weather Roundup
Issued by NWS Central Illinois

Home | Current Version | Previous Version | Text Only | Print | Product List | Glossary On
Versions: 1 2 3 4 5 6 7 8 9 10 11 12 13 14 15 16 17 18 19 20 21 22 23 24 25 26 27 28 29 30 31 32 33 34 35 36 37 38 39 40 41 42 43 44 45 46 47 48 49 50
000
NZUS43 KILX 012010
HWRILX

AREA WEATHER ROUNDUP
NATIONAL WEATHER SERVICE, LINCOLN IL
300 PM CDT TUE SEP 01 2015


CITY           SKY/WX    TMP DP  RH WIND       PRES   REMARKS
BLOOMINGTON    MOSUNNY   90  75  61 SE13      30.05F HX 100
CHAMPAIGN      PTSUNNY   87  71  58 S7        30.08S HX  93
DANVILLE       RAIN      77  70  78 S9        30.07S
DECATUR        MOSUNNY   89  70  53 S9        30.05F HX  94
EFFINGHAM      MOSUNNY   88  65  46 S7        30.08F HX  89
FLORA          SUNNY     88  66  47 S7        30.08F HX  90
GALESBURG      MOSUNNY   89  69  52 SW10      30.02S HX  94
JACKSONVILLE   PTSUNNY   92  70  48 S8        30.03F HX  98
LACON          SUNNY     89  69  50 S9        30.00F HX  93
LAWRENCEVILLE  MOSUNNY   89  68  49 SW7       30.09F HX  93
LITCHFIELD     MOSUNNY   90  68  48 S9        30.06F HX  93
$$


CITY           SKY/WX    TMP DP  RH WIND       PRES   REMARKS
LINCOLN        MOSUNNY   92  66  42 SW5       30.01F HX  95
MACOMB         SUNNY     92  67  42 S7        30.04S HX  95
MATTOON        MOSUNNY   87  69  54 S9        30.07F HX  91
MT CARMEL AP   SUNNY     88  66  48 S3        30.08F HX  90
OLNEY-NOBLE AP MOSUNNY   88  72  58 SE9       30.08F HX  94
PARIS          PTSUNNY   84  71  65 S9        30.10S HX  89
PEORIA         SUNNY     95  64  35 W13       30.02F HX  97
PONTIAC        SUNNY     87  76  68 S9        30.04F HX  97
RANTOUL        PTSUNNY   84  74  71 SW8       30.07F HX  91
ROBINSON       MOSUNNY   86  68  54 S3        30.10S HX  90
SPRINGFIELD    SUNNY     92  70  48 S10       30.03F HX  97
TAYLORVILLE    MOSUNNY   90  68  48 S8G16     30.05S HX  93
$$

...REGIONAL REPORTS...


CITY           SKY/WX    TMP DP  RH WIND       PRES   REMARKS
CHICAGO O`HARE PTSUNNY   88  72  58 SW7G18    30.00F HX  94
KANKAKEE       SUNNY     86  74  66 SW7       30.04F HX  94
MOLINE         SUNNY     91  71  51 SW9       29.98F HX  97
MOUNT STERLING SUNNY     90  67  46 S10       30.03F HX  93
MOUNT VERNON   SUNNY     91  70  49 S8        30.09S HX  97
PITTSFIELD     MOSUNNY   91  68  47 S7        30.05F HX  95
QUINCY         MOSUNNY   89  67  47 SE6       30.03S HX  92
ROCKFORD       MOSUNNY   89  70  53 SW14      30.00F HX  94
$$


CITY           SKY/WX    TMP DP  RH WIND       PRES   REMARKS
BURLINGTON     SUNNY     92  70  48 SW10      30.00F HX  97
CEDAR RAPIDS   SUNNY     87  76  69 S10       29.97F HX  97
DES MOINES     CLOUDY    90  71  53 S13       29.96S HX  96
KIRKSVILLE     SUNNY     90  68  48 SW8       30.04S HX  94
OTTUMWA        SUNNY     89  72  56 SW12      29.97F HX  96
ST LOUIS       MOSUNNY   92  68  45 S9        30.06F HX  96
$$


CITY           SKY/WX    TMP DP  RH WIND       PRES   REMARKS
TERRE HAUTE    PTSUNNY   86  69  56 SW8       30.10S HX  90
EVANSVILLE     MOSUNNY   90  64  42 S7        30.09F HX  91
INDIANAPOLIS   PTSUNNY   86  65  49 W8        30.10F HX  88
LAFAYETTE      MOSUNNY   86  67  52 SW10      30.06F HX  89
MADISON        PTSUNNY   87  69  54 SW9G17    29.96F HX  91
MILWAUKEE      PTSUNNY   88  68  51 SW14      29.97F HX  91
$$




USA.gov is the U.S. government's official web portal to all federal, state and local government web resources and services.